User: anonymous   Login
Location: Caltech
(34.1382°N, 118.1253°W)
Time: 03:35:22
(UTC-07:00)
Language:

ASTRO E2 - Orbit

View from above orbital plane
View from above orbital plane
View from above satellite
View from above satellite

Ground track
Ground track

The orbit data is extracted from the following two-line orbital elements,

1 28773U 05025A   18109.39087834  .00000850  00000-0  38203-4 0  9993
2 28773  31.3821 109.6927 0004700 183.6688 176.3925 15.16472092703866
Epoch (UTC): 19 April 2018 09:22:51
Eccentricity: 0.0004700
inclination: 31.3821°
perigee height: 513 km
apogee height: 520 km
right ascension of ascending node: 109.6927°
argument of perigee: 183.6688°
revolutions per day: 15.16472092
mean anomaly at epoch: 176.3925°
orbit number at epoch: 70386

The dashed part of the orbit path shows where the satellite is in the earth's shadow,  

DLR